CREW DRAGON 5

Last updated on Sun Mar 12 2023 00:02:06 GMT+0000 (Coordinated Universal Time)

1 53963U 22124A 23070.39926044 -.04149769 00000+0 -75388-1 0 9999 2 53963 51.6343 92.9561 0003857 75.7591 69.9710 15.53017059 25127
UTC large
Height (km)
Speed (km/s)
/
Latitude / Longitude
Inclination (degrees)
Orbital Period (minutes)
Azimuth
Elevation
Range (km)
Doppler Factor

Next 0 passes for location: London (51.5072 / 0.1276)

Sorry there are no passes over London.